TimeCDT,TemperatureF,Dew PointF,Humidity,Sea Level PressureIn,VisibilityMPH,Wind Direction,Wind SpeedMPH,Gust SpeedMPH,PrecipitationIn,Events,Conditions,WindDirDegrees,DateUTC
12:53 AM,46.0,39.9,79,30.24,10.0,NW,4.6,-,N/A,,Overcast,320,2012-10-07 05:53:00
2:53 AM,45.0,39.9,82,30.25,10.0,WNW,4.6,-,N/A,,Mostly Cloudy,290,2012-10-07 07:53:00
3:53 AM,45.0,39.9,82,30.24,10.0,NW,6.9,-,N/A,,Overcast,320,2012-10-07 08:53:00
4:53 AM,43.0,39.0,86,30.24,10.0,Calm,Calm,-,N/A,,Partly Cloudy,0,2012-10-07 09:53:00
5:53 AM,45.0,37.9,76,30.27,10.0,NNW,6.9,-,N/A,,Overcast,330,2012-10-07 10:53:00
6:53 AM,44.1,37.0,76,30.27,10.0,NW,4.6,-,N/A,,Overcast,320,2012-10-07 11:53:00
7:53 AM,44.1,37.0,76,30.27,10.0,NNW,4.6,-,N/A,,Clear,330,2012-10-07 12:53:00
8:53 AM,48.0,35.1,61,30.28,10.0,NNW,8.1,-,N/A,,Clear,340,2012-10-07 13:53:00
9:53 AM,51.1,34.0,52,30.29,10.0,NNW,9.2,-,N/A,,Clear,340,2012-10-07 14:53:00
10:53 AM,53.1,33.1,47,30.28,10.0,NNW,11.5,-,N/A,,Clear,340,2012-10-07 15:53:00
11:53 AM,54.0,32.0,43,30.27,10.0,West,5.8,-,N/A,,Clear,280,2012-10-07 16:53:00
12:53 PM,55.9,33.1,42,30.26,10.0,WNW,10.4,-,N/A,,Clear,300,2012-10-07 17:53:00
1:53 PM,57.9,34.0,41,30.22,10.0,NNW,8.1,-,N/A,,Clear,330,2012-10-07 18:53:00
2:53 PM,57.9,33.1,39,30.20,10.0,Variable,5.8,-,N/A,,Clear,0,2012-10-07 19:53:00
3:53 PM,59.0,32.0,36,30.19,10.0,North,5.8,-,N/A,,Clear,10,2012-10-07 20:53:00
4:53 PM,57.9,30.9,36,30.19,10.0,Calm,Calm,-,N/A,,Clear,0,2012-10-07 21:53:00
5:53 PM,55.9,36.0,47,30.18,10.0,Calm,Calm,-,N/A,,Clear,0,2012-10-07 22:53:00
6:53 PM,51.1,43.0,74,30.19,10.0,Calm,Calm,-,N/A,,Clear,0,2012-10-07 23:53:00
7:53 PM,48.9,43.0,80,30.19,10.0,Calm,Calm,-,N/A,,Clear,0,2012-10-08 00:53:00
8:53 PM,46.9,43.0,86,30.22,10.0,Calm,Calm,-,N/A,,Clear,0,2012-10-08 01:53:00
9:53 PM,48.0,44.1,86,30.20,10.0,Calm,Calm,-,N/A,,Clear,0,2012-10-08 02:53:00
10:53 PM,48.0,43.0,83,30.21,10.0,Calm,Calm,-,N/A,,Clear,0,2012-10-08 03:53:00
11:53 PM,48.0,43.0,83,30.20,10.0,Calm,Calm,-,N/A,,Clear,0,2012-10-08 04:53:00